sat.trackr.live / text

‹ back to catalog

STARLINK-30703

NORAD 57954 · 2023-148V

PAYLOAD ACTIVE UNKNOWN

§ Identity

Operator
Country
US
Launch date
2023-09-25
Launch site
AFWTR
Launch vehicle
Mass (kg)
RCS (m²)

Purposes: comms

External: N2YO · Heavens-Above · Gunter

§ Orbital elements

Epoch: 2026-09-20T07:18:00.234432Z

Period
93.85 min
Inclination
53.1596°
Eccentricity
0.0002094
Mean motion
15.34394452 rev/d
Perigee alt
461.3 km
Apogee alt
464.2 km
Semi-major
6,840.9 km
B*
4.6097e-5
RAAN
186.3546°
Arg perigee
41.8728°
Mean anomaly
318.2435°
Rev number
16,841

§ Raw data

STARLINK-307031 57954U 23148V   26263.30416938  .00001181  00000+0  46097-4 0  99912 57954  53.1596 186.3546 0002094  41.8728 318.2435 15.34394452168415

JSON: /api/v1/satellites/57954 · /tle

For live sub-satellite position, see the globe view (requires WebGL).

§ Visibility from observer

Set your observer location to see the next 7 days of passes ≥ 10°. The values pass through the URL so the page stays shareable.

No JS? Fill the form by hand. The geolocation button needs JavaScript.